[[{"header":{"parameterUnit":"m.s-1","parameterCategory":1,"la1":30.2991,"la2":30.254,"lo1":-89.0895,"lo2":-89.0444,"dy":0.0017,"dx":0.0017,"nx":28,"ny":28,"refTime":"2025-06-11T09:00:00:Z","depth":0,"parameterNumber":2,"parameterNumberName":"U-component_of_WINDS"},"data":[0,0,0,0,0,0,0,0,0,0,0,0,0,0,0,0,0,0,0,0,0,0,0,0,0,0,0,0,0,0,0,0,0,0,0,0,0,0,0,0,0,0,0,0,0,0,0,0,0,0,0,0,0,0,0,0,0,0,-0.4893,-0.4893,0,-0.4878,-0.4878,-0.4878,-0.4866,-0.4866,-0.4866,-0.4865,-0.4851,-0.485,-0.485,0,0,0,0,0,0,0,0,0,0,0,0,0,-0.4912,-0.4912,-0.4893,-0.4893,-0.4892,-0.4878,-0.4878,-0.4878,-0.4866,-0.4866,-0.4866,-0.4865,-0.4851,-0.4851,-0.485,0,0,0,0,0,0,0,0,0,0,0,0,0,-0.4901,-0.4912,-0.4893,-0.4885,-0.4884,-0.4878,-0.4878,-0.4878,-0.4866,-0.4866,-0.4865,-0.4865,-0.4851,-0.4851,-0.485,-0.4851,0,0,-0.4849,-0.4849,0,0,0,0,0,0,0,0,-0.4902,-0.4901,-0.4886,-0.4885,-0.4884,-0.4874,-0.4879,-0.4869,-0.4866,-0.4873,-0.4865,-0.4865,-0.4859,-0.4857,-0.4855,-0.485,-0.485,-0.4849,-0.4849,-0.4848,-0.4848,0,0,0,0,0,0,0,-0.4903,-0.4901,-0.4887,-0.4886,-0.4885,-0.4882,-0.4881,-0.4877,-0.4867,-0.4872,-0.4871,-0.487,-0.4858,-0.4856,-0.4855,-0.485,-0.4849,-0.4848,-0.4848,-0.4848,-0.4846,-0.4846,0,0,0,0,0,0,-0.4905,-0.4902,-0.4887,-0.4886,-0.4893,-0.4882,-0.488,-0.4877,-0.4867,-0.4865,-0.487,-0.4869,-0.4856,-0.4855,-0.4854,-0.4855,-0.4848,-0.4848,-0.4848,-0.4846,-0.4846,-0.4847,0,0,0,0,0,0,-0.4905,-0.4903,-0.4888,-0.4894,-0.4892,-0.4882,-0.4879,-0.4877,-0.4874,-0.4865,-0.4863,-0.4869,-0.4856,-0.4855,-0.4852,-0.4855,-0.4848,-0.4847,-0.4846,-0.4846,-0.4846,-0.4857,0,0,0,0,0,0,-0.4906,-0.4904,-0.4903,-0.4894,-0.4891,-0.4886,-0.4879,-0.4877,-0.4874,-0.4873,-0.4864,-0.4862,-0.4856,-0.4853,-0.4852,-0.4854,-0.4847,-0.4846,-0.4846,-0.4846,-0.4857,-0.4858,-0.4859,0,0,0,0,0,-0.4906,-0.4907,-0.4904,-0.4902,-0.4891,-0.4886,-0.4885,-0.4877,-0.4874,-0.4874,-0.4868,-0.4863,-0.4855,-0.4853,-0.4851,-0.4853,-0.4845,-0.4846,-0.4846,-0.4856,-0.4858,-0.4859,0,0,0,0,0,0,-0.4917,-0.4906,-0.4902,-0.4899,-0.4894,-0.4884,-0.4884,-0.4879,-0.4874,-0.4874,-0.4865,-0.4863,-0.4862,-0.4857,-0.4855,-0.4854,-0.4849,-0.4849,-0.4857,-0.4859,-0.486,-0.4861,-0.4847,0,0,0,0,0,-0.4919,-0.4916,-0.4906,-0.4905,-0.4902,-0.4894,-0.4891,-0.4886,-0.488,-0.4878,-0.4872,-0.4866,-0.4863,-0.486,-0.4856,-0.4856,-0.4855,-0.4857,-0.4858,-0.4859,-0.486,-0.486,-0.4861,-0.4848,-0.4848,-0.4848,0,0,-0.4923,-0.4917,-0.4915,-0.4907,-0.4902,-0.4899,-0.4892,-0.4889,-0.4887,-0.4877,-0.4875,-0.487,-0.4864,-0.4863,-0.4862,-0.4859,-0.4863,-0.486,-0.4861,-0.4861,-0.4861,-0.4862,-0.4863,-0.4848,-0.4848,-0.4848,0,0,-0.493,-0.4924,-0.4923,-0.4918,-0.4911,-0.4906,-0.4906,-0.4897,-0.4894,-0.4891,-0.4884,-0.4882,-0.4875,-0.4871,-0.4868,-0.4874,-0.4869,-0.4873,-0.488,-0.488,-0.4881,-0.4882,-0.4885,-0.4886,-0.4874,-0.4874,-0.4874,0,-0.4936,-0.4931,-0.4923,-0.4921,-0.4918,-0.4909,-0.4908,-0.4904,-0.4897,-0.4895,-0.4892,-0.4884,-0.4879,-0.4878,-0.4879,-0.4877,-0.4877,-0.4874,-0.4882,-0.4883,-0.4883,-0.4886,-0.4887,-0.4874,-0.4874,-0.4874,-0.4874,0,-0.4939,-0.4936,-0.4936,-0.4929,-0.4926,-0.4925,-0.4917,-0.4915,-0.491,-0.4905,-0.4903,-0.4897,-0.4892,-0.4891,-0.4887,-0.4889,-0.4888,-0.4883,-0.4878,-0.4885,-0.4888,-0.4889,-0.4875,-0.4875,-0.4875,-0.4875,0,0,-0.4951,-0.4941,-0.4941,-0.4938,-0.493,-0.4928,-0.4926,-0.4922,-0.4921,-0.4916,-0.4915,-0.491,-0.4906,-0.4903,-0.4898,-0.4898,-0.4905,-0.4894,-0.4894,-0.4897,-0.4909,-0.4912,-0.4914,-0.4901,-0.4901,-0.4901,-0.4909,0,-0.4957,-0.4954,-0.4947,-0.4946,-0.4944,-0.4936,-0.4935,-0.493,-0.4926,-0.4924,-0.4919,-0.4916,-0.4911,-0.4909,-0.4909,-0.4904,-0.4907,-0.4903,-0.4901,-0.4901,-0.4903,-0.4915,-0.4919,-0.4927,-0.491,-0.491,-0.491,0,-0.4963,-0.4959,-0.4958,-0.4951,-0.495,-0.4949,-0.4945,-0.4942,-0.4937,-0.4934,-0.4931,-0.4926,-0.4925,-0.4919,-0.4918,-0.4916,-0.4914,-0.4912,-0.4912,-0.4912,-0.4907,-0.4916,-0.4929,-0.493,-0.4912,-0.4912,-0.4912,0,-0.4973,-0.4967,-0.4966,-0.4964,-0.4955,-0.4955,-0.4952,-0.4947,-0.4945,-0.4941,-0.494,-0.4936,-0.4934,-0.4932,-0.4926,-0.4923,-0.4926,-0.492,-0.4924,-0.4924,-0.4925,-0.4925,-0.4938,-0.4923,-0.4923,-0.4923,-0.4923,0,-0.498,-0.498,-0.497,-0.497,-0.497,-0.4962,-0.4963,-0.4959,-0.4955,-0.4954,-0.4946,-0.4946,-0.4937,-0.4936,-0.4931,-0.4932,-0.493,-0.4928,-0.4927,-0.4929,-0.493,-0.4929,-0.4928,-0.4923,-0.4923,-0.4923,-0.4923,0,-0.4991,-0.4984,-0.4983,-0.4976,-0.4974,-0.4974,-0.4969,-0.4968,-0.4964,-0.4962,-0.4962,-0.4955,-0.4953,-0.4946,-0.4943,-0.4939,-0.4942,-0.4939,-0.4943,-0.4943,-0.4947,-0.4947,-0.4961,-0.4963,-0.4946,-0.4946,-0.4946,0,-0.4996,-0.4995,-0.4989,-0.4988,-0.4985,-0.4983,-0.4981,-0.4974,-0.4973,-0.4968,-0.4968,-0.4966,-0.4963,-0.4961,-0.4955,-0.4953,-0.495,-0.4955,-0.495,-0.4953,-0.4952,-0.4952,-0.4952,-0.4957,-0.4957,-0.4957,-0.4957,0,-0.5006,-0.5003,-0.5,-0.4998,-0.4996,-0.4993,-0.499,-0.4989,-0.4982,-0.498,-0.4979,-0.4977,-0.4974,-0.4972,-0.4968,-0.4965,-0.496,-0.4959,-0.496,-0.4962,-0.4965,-0.4965,-0.4947,-0.4959,-0.4959,-0.4959,-0.4958,-0.4958,-0.5014,-0.5014,-0.501,-0.5008,-0.5005,-0.5002,-0.5002,-0.4998,-0.4996,-0.4993,-0.4989,-0.4988,-0.4984,-0.4979,-0.4977,-0.4976,-0.4973,-0.4974,-0.4975,-0.4975,-0.4977,-0.4965,-0.4975,-0.4975,-0.4975,-0.4975,-0.4975,0,-0.5025,-0.5022,-0.502,-0.5016,-0.5015,-0.501,-0.5007,-0.5006,-0.5005,-0.5002,-0.5,-0.4999,-0.4997,-0.4992,-0.499,-0.4991,-0.4989,-0.4991,-0.4991,-0.499,-0.4979,-0.4979,-0.4992,-0.4992,-0.4992,-0.4992,-0.4992,-0.4992,-0.503,-0.503,-0.5027,-0.5026,-0.5023,-0.5022,-0.5021,-0.5019,-0.5016,-0.5015,-0.5014,-0.5011,-0.5007,-0.5005,-0.5004,-0.5002,-0.5002,-0.5005,-0.5003,-0.4993,-0.4991,-0.4989,-0.4989,-0.5005,-0.5005,-0.5015,-0.5015,-0.5015]},{"header":{"parameterUnit":"m.s-1","parameterCategory":1,"la1":30.2991,"la2":30.254,"lo1":-89.0895,"lo2":-89.0444,"dy":0.0017,"dx":0.0017,"nx":28,"ny":28,"refTime":"2025-06-11T09:00:00:Z","depth":0,"parameterNumber":3,"parameterNumberName":"V-component_of_WINDS"},"data":[0,0,0,0,0,0,0,0,0,0,0,0,0,0,0,0,0,0,0,0,0,0,0,0,0,0,0,0,0,0,0,0,0,0,0,0,0,0,0,0,0,0,0,0,0,0,0,0,0,0,0,0,0,0,0,0,0,0,4.7247,4.7248,0,4.7311,4.7312,4.7312,4.7255,4.7253,4.725,4.7248,4.731,4.7314,4.7318,0,0,0,0,0,0,0,0,0,0,0,0,0,4.7072,4.7075,4.7247,4.7248,4.7249,4.7311,4.7312,4.7312,4.7256,4.7253,4.725,4.7247,4.7309,4.7314,4.7318,0,0,0,0,0,0,0,0,0,0,0,0,0,4.7143,4.7076,4.7247,4.7228,4.7227,4.7311,4.7312,4.7313,4.7256,4.7253,4.7249,4.7246,4.7308,4.7313,4.7319,4.7424,0,0,4.7336,4.7339,0,0,0,0,0,0,0,0,4.7139,4.7149,4.723,4.723,4.7228,4.7272,4.7272,4.735,4.7257,4.7245,4.7248,4.7244,4.73,4.7306,4.7326,4.7426,4.7429,4.7337,4.734,4.7343,4.7344,0,0,0,0,0,0,0,4.7134,4.7146,4.7272,4.7231,4.723,4.7215,4.7221,4.7287,4.7291,4.7246,4.7242,4.725,4.7299,4.732,4.7327,4.743,4.7337,4.7342,4.7345,4.7347,4.7615,4.7619,0,0,0,0,0,0,4.7132,4.7143,4.727,4.7274,4.7174,4.7221,4.7228,4.7261,4.729,4.7291,4.7253,4.7247,4.7312,4.732,4.7329,4.745,4.7343,4.7348,4.7351,4.7612,4.7616,4.762,0,0,0,0,0,0,4.7128,4.7144,4.7268,4.7207,4.7222,4.7227,4.7265,4.7264,4.7285,4.7296,4.7296,4.7274,4.731,4.732,4.74,4.7451,4.7351,4.7356,4.7607,4.7613,4.7618,4.7696,0,0,0,0,0,0,4.7123,4.7143,4.7184,4.7209,4.7225,4.734,4.7269,4.7268,4.7296,4.7289,4.7316,4.7317,4.7308,4.7391,4.7405,4.7457,4.736,4.7603,4.761,4.7616,4.7688,4.7703,4.7716,0,0,0,0,0,4.7117,4.7204,4.7187,4.7202,4.7277,4.7343,4.7352,4.7341,4.73,4.7341,4.7347,4.7316,4.7444,4.74,4.7415,4.747,4.7599,4.7608,4.7616,4.7682,4.77,4.7715,0,0,0,0,0,0,4.7185,4.7207,4.7188,4.7285,4.7313,4.7333,4.7384,4.7361,4.7399,4.7391,4.7374,4.7381,4.7464,4.7475,4.7425,4.757,4.7515,4.7527,4.756,4.7577,4.7591,4.7585,4.7365,0,0,0,0,0,4.7211,4.7264,4.7279,4.7364,4.7378,4.7379,4.7407,4.7396,4.7423,4.7434,4.7446,4.7472,4.7518,4.7549,4.7592,4.769,4.7693,4.7735,4.7749,4.776,4.7769,4.7818,4.7836,4.7647,4.7647,4.7647,0,0,4.7266,4.7284,4.7318,4.7378,4.7397,4.745,4.7389,4.7448,4.7486,4.7443,4.7517,4.7527,4.7555,4.7643,4.7683,4.7655,4.7822,4.777,4.7779,4.7783,4.7829,4.7847,4.7862,4.7653,4.7652,4.7651,0,0,4.7392,4.7413,4.7483,4.7504,4.7534,4.7534,4.755,4.7574,4.7579,4.7654,4.7621,4.7665,4.7746,4.7766,4.7787,4.7917,4.7889,4.7932,4.8002,4.805,4.8065,4.8078,4.8121,4.8137,4.7942,4.7942,4.7942,0,4.7455,4.7535,4.7522,4.7582,4.7608,4.7571,4.764,4.7661,4.7704,4.7721,4.769,4.7787,4.7804,4.7895,4.7926,4.7946,4.7962,4.7928,4.8064,4.8077,4.8089,4.813,4.8146,4.7947,4.7946,4.7946,4.7945,0,4.7609,4.7665,4.7718,4.7759,4.7791,4.7856,4.7851,4.7884,4.7869,4.7871,4.7946,4.7965,4.8009,4.803,4.8017,4.8118,4.8099,4.8067,4.801,4.8112,4.815,4.8166,4.7953,4.7952,4.795,4.7949,0,0,4.778,4.7812,4.7832,4.7848,4.7879,4.792,4.7982,4.8025,4.8052,4.8083,4.8132,4.82,4.8169,4.8192,4.8181,4.8224,4.8321,4.8185,4.8185,4.8207,4.8429,4.8452,4.847,4.8303,4.8306,4.8309,4.8426,0,4.7904,4.8012,4.8001,4.8103,4.8152,4.8116,4.8169,4.8192,4.8195,4.8236,4.8238,4.8285,4.8243,4.8256,4.8297,4.8301,4.8365,4.8292,4.8346,4.8348,4.8338,4.8491,4.8516,4.8625,4.8441,4.8444,4.8445,0,4.8064,4.8099,4.8206,4.8225,4.8245,4.8293,4.833,4.837,4.8394,4.8393,4.8418,4.8399,4.8458,4.8402,4.8481,4.8432,4.8453,4.8458,4.8462,4.8465,4.8401,4.8495,4.866,4.8676,4.8469,4.8467,4.8466,0,4.8173,4.8248,4.832,4.8336,4.8361,4.8395,4.8407,4.8428,4.8453,4.8486,4.8501,4.854,4.8561,4.8591,4.8581,4.8541,4.8661,4.8605,4.866,4.866,4.8685,4.8683,4.8853,4.8704,4.8703,4.8703,4.8703,0,4.8312,4.8378,4.8369,4.8413,4.8484,4.847,4.8541,4.8548,4.8566,4.861,4.8582,4.8623,4.8609,4.8648,4.8641,4.8706,4.8717,4.8715,4.8712,4.8716,4.8716,4.8728,4.8719,4.8707,4.8706,4.8706,4.8705,0,4.8446,4.8443,4.8519,4.8536,4.8541,4.8593,4.8606,4.8647,4.8647,4.8702,4.8714,4.8714,4.8758,4.8752,4.8802,4.8797,4.8877,4.8866,4.8869,4.8865,4.8919,4.8913,4.9101,4.9123,4.8962,4.8964,4.8965,0,4.8533,4.8582,4.8604,4.8631,4.8645,4.8689,4.8715,4.8702,4.873,4.8759,4.8795,4.8837,4.887,4.8943,4.8946,4.8984,4.8971,4.9035,4.8977,4.8978,4.8968,4.8964,4.8968,4.9045,4.9047,4.9049,4.905,0,4.8687,4.8682,4.8721,4.8758,4.8789,4.8818,4.8844,4.8867,4.8856,4.8888,4.8933,4.8959,4.9009,4.905,4.9085,4.9095,4.907,4.9069,4.9082,4.9086,4.9084,4.9082,4.8897,4.9064,4.9062,4.9061,4.9061,4.906,4.8798,4.8839,4.8859,4.8902,4.892,4.8944,4.8981,4.8986,4.9023,4.9063,4.9053,4.9103,4.9123,4.9167,4.9181,4.9218,4.9195,4.9216,4.9221,4.9226,4.923,4.908,4.9225,4.9225,4.9224,4.9224,4.9224,0,4.8947,4.8958,4.8998,4.9034,4.9067,4.9041,4.9068,4.9096,4.9141,4.9162,4.9194,4.9244,4.9284,4.929,4.9326,4.9355,4.9344,4.9365,4.9361,4.9363,4.9251,4.9234,4.9373,4.9373,4.9373,4.9372,4.9372,4.9372,4.9029,4.9095,4.9093,4.9167,4.9177,4.9226,4.9243,4.9264,4.928,4.9337,4.9369,4.9373,4.9387,4.9424,4.9457,4.9458,4.9471,4.9496,4.9492,4.9386,4.9371,4.9357,4.9341,4.95,4.95,4.96,4.9601,4.9602]}]]